Regional Weather Roundup
Issued by NWS

Home | Current Version | Previous Version | Text Only | Print | Product List | Glossary Off
Versions: 1 2 3 4 5 6 7 8 9 10 11 12 13 14 15 16 17 18 19 20 21 22 23 24 25 26 27 28 29 30 31 32 33 34 35 36 37 38 39 40 41 42 43 44 45 46 47 48 49 50

000
ASUS43 KBIS 301010
RWRND

NORTH DAKOTA REGIONAL WEATHER ROUNDUP
NATIONAL WEATHER SERVICE BISMARCK ND
500 AM CDT TUE AUG 30 2016

NOTE: "FAIR" INDICATES FEW OR NO CLOUDS BELOW 12,000 FEET WITH NO
SIGNIFICANT WEATHER AND/OR OBSTRUCTIONS TO VISIBILITY.


NDZ001>003-009>011-017-301100-
NORTHWEST NORTH DAKOTA

CITY           SKY/WX    TMP DP  RH WIND       PRES   REMARKS
WILLISTON      CLEAR     52  42  69 CALM      30.21S
MINOT          CLEAR     53  46  77 CALM      30.23S
MINOT AFB      CLEAR     47  43  84 SW1       30.23R
$$

NDZ018>021-031>035-040>046-301100-
SOUTHWEST NORTH DAKOTA

CITY           SKY/WX    TMP DP  RH WIND       PRES   REMARKS
BISMARCK       CLEAR     51  47  86 CALM      30.26S
DICKINSON      CLEAR     52  46  80 SE9       30.23F
GARRISON         N/A     48  45  89 E3        30.24F
HETTINGER ARPT CLEAR     58  51  78 SE8       30.26F
$$

NDZ004>008-012>016-024-026-027-054-301100-
NORTHEAST NORTH DAKOTA

CITY           SKY/WX    TMP DP  RH WIND       PRES   REMARKS
GRAND FORKS    CLEAR     49  46  90 W5        30.23S
GRND FRKS AFB  CLEAR     51  48  90 CALM      30.24R
DEVILS LAKE    CLEAR     52  48  86 CALM      30.26S
$$

NDZ022-023-025-028>030-036>039-047>053-301100-
SOUTHEAST NORTH DAKOTA

CITY           SKY/WX    TMP DP  RH WIND       PRES   REMARKS
FARGO          CLEAR     52  48  86 W5        30.23S
JAMESTOWN      CLEAR     53  50  89 E3        30.25R
$$




USA.gov is the U.S. government's official web portal to all federal, state and local government web resources and services.